Regional Weather Roundup
Issued by NWS

Home | Current Version | Previous Version | Graphics & Text | Print | Product List | Glossary On
Versions: 1 2 3 4 5 6 7 8 9 10 11 12 13 14 15 16 17 18 19 20 21 22 23 24 25 26 27 28 29 30 31 32 33 34 35 36 37 38 39 40 41 42 43 44 45 46 47 48 49 50
000
ASUS43 KMKX 251200
RWRWI

WISCONSIN REGIONAL WEATHER ROUNDUP
NATIONAL WEATHER SERVICE MILWAUKEE/SULLIVAN WI
600 AM CST THU DEC 25 2014

NOTE: "FAIR" INDICATES FEW OR NO CLOUDS BELOW 12,000 FEET WITH NO
SIGNIFICANT WEATHER AND/OR OBSTRUCTIONS TO VISIBILITY.

WIZ001-002-006>008-014>016-023>028-251300-
NORTHWEST WISCONSIN

CITY           SKY/WX    TMP DP  RH WIND       PRES   REMARKS
SUPERIOR ARPT  CLOUDY    32  29  88 SW9       29.56R WCI  24
ASHLAND        CLOUDY    32  28  85 SW8       29.57S WCI  25
6HR MIN TEMP:  32; 6HR MAX TEMP:  33;

HAYWARD        CLOUDY    31  26  82 S13       29.59R WCI  21
6HR MIN TEMP:  31; 6HR MAX TEMP:  32;

SIREN          CLOUDY    32  28  88 SW8       29.60R WCI  24
CUMBERLAND     CLOUDY    30  28  93 SW10      29.60R WCI  21
RICE LAKE      CLOUDY    31  28  87 S14       29.63R WCI  21
CHETEK         CLOUDY    31  28  89 S5        29.63R WCI  26
LADYSMITH      CLOUDY    32  29  90 SW8       29.64R WCI  24
EAU CLAIRE     NOT AVBL
MENOMONIE      CLOUDY    31  28  86 S12       29.66R WCI  22
NEW RICHMOND   CLOUDY    30  29  96 S12       29.63R WCI  21
OSCEOLA        CLOUDY    31  31  98 S7        29.66R WCI  25
$$

WIZ003>005-009-010-017-018-251300-
NORTH CENTRAL WISCONSIN

CITY           SKY/WX    TMP DP  RH WIND       PRES   REMARKS
MANITOWISH WTR CLOUDY    29  29  99 SW7       29.56R WCI  22
ARBOR VITAE    CLOUDY    32  29  90 W7        29.57R WCI  25
WOODRUFF       CLOUDY    32  29  90 W7        29.57R WCI  25
RHINELANDER    CLOUDY    30  27  88 SW14      29.60R WCI  19
6HR MIN TEMP:  29; 6HR MAX TEMP:  30;

EAGLE RIVER    CLOUDY    30  29  96 SW10      29.57R WCI  21
LAND O LAKES   CLOUDY    30  28  93 W7        29.56R WCI  23
PHILLIPS       CLOUDY    30  27  90 SW12      29.59R WCI  20
TOMAHAWK       CLOUDY    30  27  90 CALM      29.61R
MEDFORD        CLOUDY    29  28  93 SW10G17   29.63R WCI  20
MERRILL        CLOUDY    31  28  89 W14G21    29.63R WCI  21
$$

WIZ029-030-035-036-043>047-251300-
CENTRAL WISCONSIN

CITY           SKY/WX    TMP DP  RH WIND       PRES   REMARKS
WAUSAU         CLOUDY    31  27  85 W8        29.64R WCI  23
6HR MIN TEMP:  29; 6HR MAX TEMP:  32;

MOSINEE        CLOUDY    30  30 100 SW13      29.66R WCI  20
MARSHFIELD     CLOUDY    31  27  85 W9        29.67R WCI  23
6HR MIN TEMP:  31; 6HR MAX TEMP:  33;

STEVENS POINT  CLOUDY    30  27  86 W14       29.68R WCI  20
WAUPACA        CLOUDY    35  30  83 W12       29.69R WCI  27
WAUTOMA        NOT AVBL
WISC RAPIDS    CLOUDY    32  26  78 SW9       29.70R WCI  24
6HR MIN TEMP:  32; 6HR MAX TEMP:  33;

CAMP DOUGLAS   CLOUDY    32  32 100 SW7       29.71R WCI  26
6HR MIN TEMP:  32; 6HR MAX TEMP:  33;

$$

WIZ011>013-019>022-031-037>040-048>050-251300-
NORTHEAST WISCONSIN

CITY           SKY/WX    TMP DP  RH WIND       PRES   REMARKS
ANTIGO         CLOUDY    30  28  94 W10       29.62R WCI  21
SHAWANO        CLOUDY    33  29  86 SW5       29.66R WCI  29
OCONTO         CLEAR     30  30  98 SW6       29.66R WCI  24
STURGEON BAY   CLEAR     30  27  86 SW12      29.67R WCI  21
6HR MIN TEMP:  30; 6HR MAX TEMP:  34;

GREEN BAY      MOCLDY    33  29  85 SW8       29.69R WCI  26
6HR MIN TEMP:  32; 6HR MAX TEMP:  34;

MANITOWOC      NOT AVBL
APPLETON       CLOUDY    34  30  86 SW12      29.70R WCI  25
CLINTONVILLE   CLOUDY    32  30  93 SW8       29.66S WCI  25
OSHKOSH        CLOUDY    34  29  82 SW7       29.71R WCI  28
6HR MIN TEMP:  34; 6HR MAX TEMP:  34;

$$

WIZ032>034-041-042-053>061-251300-
SOUTHWEST WISCONSIN

CITY           SKY/WX    TMP DP  RH WIND       PRES   REMARKS
LA CROSSE      CLOUDY    32  26  78 SW9       29.73R WCI  24
6HR MIN TEMP:  32; 6HR MAX TEMP:  35;

SPARTA         CLOUDY    31  26  81 SW7G17    29.72S WCI  24
VIROQUA        CLOUDY    29  29 100 SW12      29.71R WCI  19
BOSCOBEL       CLOUDY    33  27  78 SW8       29.76R WCI  26
6HR MIN TEMP:  33; 6HR MAX TEMP:  36;

PRAIRIE DU CHI CLOUDY    32  26  80 SW12      29.76R WCI  23
PLATTEVILLE    CLOUDY    32  29  90 CALM      29.78R
$$

WIZ056-057-062-063-064-067-068-251300-
SOUTH CENTRAL WISCONSIN

CITY           SKY/WX    TMP DP  RH WIND       PRES   REMARKS
REEDSBURG      CLOUDY    32  28  86 SW12      29.73R WCI  23
BARABOO/DELLS  CLOUDY    32  28  85 W9        29.73R WCI  24
LONE ROCK      NOT AVBL
MINERAL POINT  CLOUDY    32  30  93 SW7       29.75R WCI  26
MADISON        CLOUDY    33  27  78 VRB7      29.76R WCI  27
6HR MIN TEMP:  32; 6HR MAX TEMP:  34;

MIDDLETON      CLOUDY    33  29  84 W14G21    29.75R WCI  24
WATERTOWN      CLOUDY    33  30  89 SW12      29.74S WCI  24
MONROE         CLOUDY    32  30  93 SW16      29.76R WCI  21
JANESVILLE     CLOUDY    34  28  80 W9        29.78R WCI  26
$$

WIZ051-052-058>065-066-070>072-251300-
SOUTHEAST WISCONSIN

CITY           SKY/WX    TMP DP  RH WIND       PRES   REMARKS
MILWAUKEE      CLOUDY    36  27  69 W13G20    29.78R WCI  27
6HR MIN TEMP:  36; 6HR MAX TEMP:  37;

WAUKESHA       NOT AVBL
MILWAUKEE/TIMM CLOUDY    34  27  75 W15       29.76R WCI  24
RACINE         CLOUDY    35  27  72 W13G25    29.80R WCI  26
6HR MIN TEMP:  35; 6HR MAX TEMP:  37;

BURLINGTON     CLOUDY    32  28  83 W14       29.78R WCI  22
KENOSHA        CLOUDY    34  28  79 W13       29.79R WCI  25
6HR MIN TEMP:  34; 6HR MAX TEMP:  36;

FOND DU LAC    CLOUDY    34  28  79 SW7       29.72R WCI  28
6HR MIN TEMP:  34; 6HR MAX TEMP:  35;

SHEBOYGAN      CLOUDY    34  28  79 W10       29.72R WCI  26
6HR MIN TEMP:  34; 6HR MAX TEMP:  35;

WEST BEND      CLOUDY    34  28  80 SW8       29.72R WCI  27
JUNEAU         CLOUDY    32  29  88 SW14      29.74R WCI  22
$$

LSZ147-162-251300-
LAKE SUPERIOR

STATION/POSITION TIME  TEMP    WIND        PRES    WAVE
                       AIR SEA DIR/SP/G            HT/PER
                 (UTC) (F)     (DEG/KT/KT) (MB)    (FT/S)
DEVILS ISLAND    1100   34     230/ 19/ 23 1000.7R
PORT WING        1100   33     200/  8/ 11 1001.0
SAXON HARBOR     1100   34     200/  6/ 15 1001.4
$$

LMZ867-665-643>646-251300-
LAKE MICHIGAN

STATION/POSITION TIME  TEMP    WIND        PRES    WAVE
                       AIR SEA DIR/SP/G            HT/PER
                 (UTC) (F)     (DEG/KT/KT) (MB)    (FT/S)
CHAMBERS ISLAND  1100   34     210/  9/ 13 1003.0R
NORTHPORT PIER   1100   33     260/  4/ 10 1002.4R
SISTER BAY       1113          260/ 16/ 20   N/A
ALGOMA LAKESHORE 1115          280/ 11/ 15   N/A
KEWAUNEE LAKESHO 1100   33     250/ 10/ 16 1003.8R
SHEBOYGAN LAKESH 1100   36 37  260/ 12/ 15 1006.6R
PORT WASHINGTON  1100   36     250/  8/ 14 1007.5
MILWAUKEE LAKESH 1100   36     280/ 14/ 18   N/A
KENOSHA   LAKESH 1100   36     250/ 12/ 20 1008.5R
$$

TC  - TEMPERATURE IN CELSIUS
VSB - VISIBILITY IN STATUTE MILES
WCI - WIND CHILL INDEX
HX  - HEAT INDEX



USA.gov is the U.S. government's official web portal to all federal, state and local government web resources and services.